[[{"header":{"parameterUnit":"m.s-1","parameterCategory":1,"la1":30.2991,"la2":30.254,"lo1":-89.0895,"lo2":-89.0444,"dy":0.0017,"dx":0.0017,"nx":28,"ny":28,"refTime":"2025-04-19T09:00:00:Z","depth":0,"parameterNumber":2,"parameterNumberName":"U-component_of_WINDS"},"data":[0,0,0,0,0,0,0,0,0,0,0,0,0,0,0,0,0,0,0,0,0,0,0,0,0,0,0,0,0,0,0,0,0,0,0,0,0,0,0,0,0,0,0,0,0,0,0,0,0,0,0,0,0,0,0,0,0,0,-3.9716,-3.9717,0,-3.9778,-3.9779,-3.978,-3.9744,-3.9742,-3.974,-3.9739,-3.9801,-3.9804,-3.9808,0,0,0,0,0,0,0,0,0,0,0,0,0,-3.9564,-3.9567,-3.9716,-3.9717,-3.9717,-3.9778,-3.9779,-3.978,-3.9744,-3.9742,-3.974,-3.9738,-3.98,-3.9804,-3.9808,0,0,0,0,0,0,0,0,0,0,0,0,0,-3.9629,-3.9568,-3.9716,-3.9707,-3.9707,-3.9778,-3.9779,-3.978,-3.9745,-3.9742,-3.9739,-3.9737,-3.9799,-3.9804,-3.9808,-3.9892,0,0,-3.9824,-3.9826,0,0,0,0,0,0,0,0,-3.9625,-3.9634,-3.9707,-3.9708,-3.9708,-3.9751,-3.9749,-3.9818,-3.9745,-3.973,-3.9739,-3.9736,-3.9786,-3.9792,-3.981,-3.9894,-3.9897,-3.9824,-3.9827,-3.9829,-3.983,0,0,0,0,0,0,0,-3.9621,-3.9632,-3.9741,-3.9709,-3.9709,-3.97,-3.9706,-3.9762,-3.9772,-3.9731,-3.9729,-3.9737,-3.9786,-3.9805,-3.9811,-3.9898,-3.9824,-3.9828,-3.9831,-3.9833,-4.0054,-4.0057,0,0,0,0,0,0,-3.9617,-3.9628,-3.9739,-3.9742,-3.9659,-3.9704,-3.9711,-3.9739,-3.9772,-3.9774,-3.9739,-3.9735,-3.9798,-3.9805,-3.9813,-3.9912,-3.9829,-3.9834,-3.9837,-4.0051,-4.0055,-4.0058,0,0,0,0,0,0,-3.9614,-3.9627,-3.9736,-3.9685,-3.9698,-3.971,-3.9742,-3.9742,-3.9761,-3.9777,-3.9779,-3.9757,-3.9796,-3.9806,-3.9872,-3.9914,-3.9836,-3.984,-4.0048,-4.0052,-4.0056,-4.0111,0,0,0,0,0,0,-3.961,-3.9626,-3.9658,-3.9686,-3.9701,-3.9795,-3.9744,-3.9745,-3.977,-3.9765,-3.9794,-3.9797,-3.9795,-3.9865,-3.9877,-3.9919,-3.9844,-4.0044,-4.005,-4.0055,-4.0105,-4.0117,-4.0126,0,0,0,0,0,-3.9605,-3.9671,-3.966,-3.9674,-3.9741,-3.9797,-3.9806,-3.9803,-3.9773,-3.9805,-3.9816,-3.9796,-3.9908,-3.9872,-3.9886,-3.9929,-4.0042,-4.0048,-4.0055,-4.0101,-4.0114,-4.0126,0,0,0,0,0,0,-3.9647,-3.9674,-3.9663,-3.974,-3.9767,-3.9791,-3.9831,-3.9817,-3.9853,-3.9847,-3.9841,-3.9848,-3.9917,-3.993,-3.989,-4.0012,-3.997,-3.9979,-4.0,-4.0013,-4.0024,-4.0018,-3.9848,0,0,0,0,0,-3.9666,-3.971,-3.9731,-3.9797,-3.9811,-3.9819,-3.9844,-3.9839,-3.9867,-3.9877,-3.9893,-3.992,-3.9961,-3.9988,-4.0027,-4.0108,-4.0113,-4.0144,-4.0155,-4.0163,-4.0171,-4.0214,-4.0228,-4.0079,-4.0079,-4.0079,0,0,-3.9704,-3.9724,-3.9752,-3.9806,-3.9826,-3.9872,-3.9829,-3.9879,-3.9912,-3.9885,-3.9948,-3.9961,-3.9991,-4.0065,-4.0098,-4.0077,-4.0214,-4.0172,-4.0178,-4.0181,-4.0223,-4.0237,-4.0249,-4.0084,-4.0083,-4.0082,0,0,-3.9797,-3.9817,-3.9874,-3.9896,-3.9927,-3.9932,-3.9946,-3.9973,-3.9981,-4.0045,-4.0025,-4.0065,-4.0136,-4.0158,-4.0179,-4.0281,-4.0264,-4.0294,-4.0348,-4.039,-4.0402,-4.0412,-4.0448,-4.0461,-4.0302,-4.0302,-4.0303,0,-3.984,-3.9908,-3.9905,-3.9957,-3.9981,-3.9959,-4.0017,-4.0038,-4.008,-4.0097,-4.0074,-4.0163,-4.0182,-4.026,-4.0286,-4.0303,-4.0318,-4.029,-4.04,-4.0411,-4.042,-4.0455,-4.0468,-4.0306,-4.0305,-4.0305,-4.0305,0,-3.996,-4.0008,-4.005,-4.0092,-4.0121,-4.0175,-4.018,-4.021,-4.0203,-4.0211,-4.0276,-4.0298,-4.0341,-4.036,-4.0353,-4.0438,-4.0424,-4.0401,-4.0359,-4.0438,-4.047,-4.0483,-4.0311,-4.031,-4.0308,-4.0308,0,0,-4.008,-4.0121,-4.0136,-4.0155,-4.0189,-4.0225,-4.0279,-4.0322,-4.0347,-4.0377,-4.0422,-4.0483,-4.0462,-4.0485,-4.0482,-4.0519,-4.0598,-4.0491,-4.0492,-4.051,-4.0692,-4.0708,-4.0724,-4.0588,-4.059,-4.0592,-4.0689,0,-4.0174,-4.0268,-4.0267,-4.0354,-4.0398,-4.0379,-4.0425,-4.0451,-4.046,-4.0498,-4.0507,-4.055,-4.052,-4.0534,-4.057,-4.0581,-4.0635,-4.0574,-4.0628,-4.063,-4.062,-4.0741,-4.0758,-4.0848,-4.0702,-4.0704,-4.0706,0,-4.0297,-4.0332,-4.0423,-4.0451,-4.0469,-4.0511,-4.055,-4.0587,-4.0616,-4.062,-4.0646,-4.0637,-4.0691,-4.0649,-4.0723,-4.0682,-4.0704,-4.0713,-4.0716,-4.072,-4.0672,-4.0747,-4.0877,-4.089,-4.0725,-4.0724,-4.0722,0,-4.0374,-4.0445,-4.0508,-4.0525,-4.0559,-4.0589,-4.0605,-4.0631,-4.0657,-4.0691,-4.0708,-4.0748,-4.0769,-4.08,-4.0802,-4.0771,-4.0877,-4.0834,-4.0881,-4.0881,-4.0903,-4.0901,-4.1038,-4.0919,-4.0919,-4.0919,-4.0918,0,-4.0479,-4.0536,-4.0543,-4.0582,-4.0645,-4.0644,-4.0705,-4.0718,-4.0742,-4.0783,-4.0769,-4.0808,-4.0808,-4.0847,-4.0849,-4.091,-4.092,-4.0924,-4.0924,-4.0925,-4.0924,-4.0938,-4.0932,-4.0922,-4.0921,-4.0921,-4.092,0,-4.0576,-4.0584,-4.0651,-4.0679,-4.0687,-4.0732,-4.0755,-4.0792,-4.08,-4.0852,-4.0864,-4.0876,-4.0922,-4.0927,-4.098,-4.0981,-4.1054,-4.1048,-4.1045,-4.1043,-4.1089,-4.1084,-4.1239,-4.1258,-4.1128,-4.1129,-4.113,0,-4.0642,-4.0685,-4.0717,-4.0744,-4.0761,-4.0804,-4.083,-4.0831,-4.0859,-4.0896,-4.0928,-4.0973,-4.1008,-4.1082,-4.1096,-4.1136,-4.113,-4.1181,-4.1136,-4.1135,-4.1129,-4.1126,-4.113,-4.1189,-4.1191,-4.1192,-4.1193,0,-4.0758,-4.076,-4.0798,-4.0839,-4.0871,-4.0903,-4.0933,-4.0956,-4.096,-4.0992,-4.1039,-4.1067,-4.1121,-4.1166,-4.1206,-4.1221,-4.1208,-4.1207,-4.122,-4.1221,-4.1217,-4.1219,-4.1068,-4.1203,-4.1202,-4.1202,-4.1201,-4.1201,-4.084,-4.0878,-4.0906,-4.095,-4.0973,-4.1001,-4.1037,-4.105,-4.109,-4.1134,-4.1133,-4.1184,-4.1212,-4.1265,-4.1283,-4.1323,-4.1306,-4.1325,-4.1329,-4.1334,-4.1338,-4.1212,-4.1331,-4.1331,-4.133,-4.133,-4.133,0,-4.0955,-4.0973,-4.1013,-4.1056,-4.109,-4.1076,-4.1108,-4.1138,-4.1184,-4.1211,-4.1247,-4.1301,-4.1344,-4.1361,-4.1403,-4.1432,-4.1427,-4.1443,-4.144,-4.1444,-4.1351,-4.1336,-4.1446,-4.1446,-4.1446,-4.1446,-4.1446,-4.1446,-4.1019,-4.1081,-4.1086,-4.1159,-4.1177,-4.1227,-4.1247,-4.1273,-4.1295,-4.1356,-4.1392,-4.1403,-4.1427,-4.1471,-4.1509,-4.1513,-4.1529,-4.1548,-4.1549,-4.1462,-4.145,-4.1439,-4.1424,-4.1551,-4.1551,-4.1637,-4.1638,-4.1639]},{"header":{"parameterUnit":"m.s-1","parameterCategory":1,"la1":30.2991,"la2":30.254,"lo1":-89.0895,"lo2":-89.0444,"dy":0.0017,"dx":0.0017,"nx":28,"ny":28,"refTime":"2025-04-19T09:00:00:Z","depth":0,"parameterNumber":3,"parameterNumberName":"V-component_of_WINDS"},"data":[0,0,0,0,0,0,0,0,0,0,0,0,0,0,0,0,0,0,0,0,0,0,0,0,0,0,0,0,0,0,0,0,0,0,0,0,0,0,0,0,0,0,0,0,0,0,0,0,0,0,0,0,0,0,0,0,0,0,3.9077,3.9077,0,3.9013,3.9012,3.9011,3.8944,3.8943,3.8942,3.8941,3.887,3.8869,3.8868,0,0,0,0,0,0,0,0,0,0,0,0,0,3.9138,3.9138,3.9077,3.9077,3.9076,3.9013,3.9012,3.9011,3.8944,3.8943,3.8942,3.8941,3.887,3.8869,3.8867,0,0,0,0,0,0,0,0,0,0,0,0,0,3.9097,3.9137,3.9078,3.9035,3.903,3.9013,3.9012,3.9011,3.8944,3.8943,3.8942,3.894,3.887,3.8869,3.8867,3.8885,0,0,3.8862,3.8862,0,0,0,0,0,0,0,0,3.9099,3.9094,3.9042,3.9038,3.9033,3.8985,3.9007,3.8969,3.8945,3.8977,3.8941,3.894,3.8909,3.8904,3.8895,3.8882,3.8879,3.8862,3.8861,3.8861,3.886,0,0,0,0,0,0,0,3.9102,3.9097,3.9052,3.9041,3.9036,3.9018,3.901,3.9,3.8951,3.8974,3.8969,3.8962,3.8906,3.8896,3.8893,3.8878,3.8862,3.8861,3.886,3.8859,3.8878,3.8879,0,0,0,0,0,0,3.9112,3.91,3.9054,3.905,3.9063,3.9018,3.9009,3.9002,3.8951,3.8942,3.8964,3.896,3.89,3.8894,3.889,3.8909,3.8861,3.8859,3.8858,3.8876,3.8878,3.888,0,0,0,0,0,0,3.9114,3.9109,3.9056,3.9073,3.9065,3.9018,3.901,3.9001,3.8992,3.8944,3.8934,3.8963,3.8898,3.8892,3.8888,3.8905,3.8859,3.8857,3.8875,3.8877,3.8879,3.8946,0,0,0,0,0,0,3.9116,3.911,3.9117,3.9074,3.9065,3.9057,3.9011,3.9001,3.899,3.8984,3.8941,3.8932,3.8897,3.889,3.8886,3.8902,3.8856,3.8873,3.8876,3.8878,3.8942,3.895,3.8957,0,0,0,0,0,3.9118,3.9137,3.9118,3.9112,3.9073,3.9058,3.9052,3.9013,3.8991,3.8998,3.8967,3.8933,3.8904,3.8891,3.8885,3.8901,3.8872,3.8875,3.8878,3.8939,3.8949,3.8957,0,0,0,0,0,0,3.918,3.913,3.9108,3.9114,3.9091,3.9047,3.9053,3.9025,3.9006,3.9001,3.8951,3.8942,3.8944,3.8922,3.8907,3.8916,3.8883,3.8885,3.8931,3.894,3.8947,3.8953,3.8855,0,0,0,0,0,3.9195,3.9189,3.9144,3.9154,3.9143,3.9101,3.9093,3.9065,3.9038,3.9027,3.8996,3.897,3.8955,3.8946,3.893,3.8939,3.8928,3.8947,3.8954,3.8961,3.8963,3.8967,3.8975,3.889,3.889,3.889,0,0,3.9225,3.9197,3.9195,3.9166,3.9144,3.9138,3.9093,3.9087,3.9081,3.9026,3.9021,3.8997,3.8965,3.8968,3.8967,3.8949,3.8985,3.8965,3.8971,3.8969,3.8972,3.898,3.8987,3.8892,3.8892,3.8892,0,0,3.9276,3.9254,3.926,3.924,3.921,3.9182,3.9183,3.9143,3.9127,3.9121,3.908,3.9071,3.9046,3.9026,3.9012,3.9057,3.9026,3.9053,3.9093,3.9097,3.9104,3.911,3.9126,3.9133,3.9056,3.9056,3.9056,0,3.9316,3.9306,3.9266,3.9264,3.9252,3.9204,3.9209,3.9192,3.9157,3.9149,3.913,3.9099,3.9074,3.9072,3.9084,3.9073,3.9073,3.9058,3.9106,3.9112,3.9116,3.9132,3.9138,3.906,3.9059,3.9059,3.9058,0,3.9357,3.9351,3.9359,3.9329,3.9318,3.932,3.9279,3.9273,3.9247,3.922,3.9216,3.9184,3.9161,3.9158,3.9131,3.9153,3.9143,3.9116,3.9081,3.9129,3.9143,3.9148,3.9065,3.9063,3.9062,3.9061,0,0,3.9444,3.9394,3.9398,3.9385,3.9348,3.9342,3.9341,3.9321,3.9317,3.9294,3.9292,3.9274,3.9249,3.9233,3.9204,3.9208,3.9247,3.918,3.9179,3.9194,3.927,3.9291,3.9299,3.9226,3.9227,3.9228,3.9273,0,3.9489,3.9487,3.9452,3.9459,3.9453,3.9408,3.9408,3.9385,3.9361,3.9351,3.9323,3.9311,3.9279,3.927,3.9272,3.9242,3.9262,3.9238,3.9223,3.9223,3.9233,3.9305,3.9327,3.9371,3.9278,3.9279,3.9279,0,3.9541,3.9525,3.9532,3.9498,3.9493,3.9494,3.9473,3.9465,3.9438,3.942,3.9404,3.9372,3.9368,3.9336,3.933,3.9315,3.9307,3.9291,3.9292,3.9289,3.9254,3.9305,3.9384,3.9391,3.9287,3.9287,3.9286,0,3.9605,3.9585,3.9587,3.9576,3.9536,3.9537,3.952,3.9492,3.9483,3.9464,3.9457,3.9438,3.9427,3.9413,3.9375,3.9356,3.9374,3.9339,3.9358,3.936,3.9364,3.9364,3.9444,3.9359,3.9358,3.9358,3.9358,0,3.9659,3.9666,3.9615,3.9617,3.9623,3.9582,3.9589,3.9567,3.9543,3.9539,3.9498,3.9494,3.9446,3.9436,3.9407,3.9407,3.9402,3.9387,3.9379,3.9391,3.9393,3.9385,3.9381,3.936,3.936,3.9359,3.9359,0,3.9731,3.9698,3.9698,3.966,3.9651,3.9657,3.9624,3.9623,3.9597,3.9592,3.9589,3.9548,3.9535,3.9497,3.9474,3.9454,3.9463,3.9448,3.9473,3.9468,3.949,3.9489,3.9567,3.9575,3.9485,3.9486,3.9487,0,3.9768,3.9773,3.9736,3.9731,3.9717,3.9709,3.97,3.966,3.9652,3.9624,3.9626,3.9611,3.9597,3.9579,3.9546,3.9528,3.9513,3.9541,3.9509,3.9522,3.9514,3.9514,3.9515,3.9548,3.9549,3.955,3.9551,0,3.9837,3.9821,3.9811,3.9795,3.9786,3.9771,3.9753,3.9751,3.9707,3.97,3.9688,3.9677,3.9655,3.9641,3.9618,3.9599,3.9568,3.9562,3.9565,3.9577,3.9592,3.9585,3.9492,3.956,3.9559,3.9558,3.9558,3.9557,3.9893,3.9896,3.9871,3.9861,3.9844,3.9829,3.9828,3.9803,3.9792,3.9773,3.975,3.9741,3.9714,3.9682,3.9665,3.9657,3.964,3.9645,3.9646,3.9648,3.9655,3.9594,3.9652,3.9652,3.9652,3.9651,3.9651,0,3.9961,3.9943,3.9935,3.9913,3.9905,3.9879,3.9858,3.9853,3.9846,3.9826,3.9813,3.98,3.9786,3.9753,3.9736,3.9736,3.9721,3.9733,3.9732,3.9729,3.967,3.9669,3.9745,3.9745,3.9745,3.9745,3.9745,3.9745,3.9995,3.9998,3.998,3.9974,3.9956,3.9948,3.9939,3.9925,3.9909,3.9897,3.9886,3.9865,3.984,3.9821,3.9807,3.9797,3.9793,3.9809,3.9795,3.9741,3.9732,3.9724,3.9723,3.9809,3.9809,3.9854,3.9855,3.9855]}]]